Страсбург

Франция     48°34′46″N   7°43′49″E
темп.,
°C
ветер,
м/с
пор.,
м/с
влажн.,
%
обл.,
%
осадки,
мм/ч
давл.,
гПа
погр.,
м
19 апреля, пн
пн1923:00+6в118590 0.0 102215
02:00+6ююв118286 0.0 102123
05:00+6ююв128493 0.0 102037
08:00+6ю2383100 0.2 1020136
11:00+7ююз248997 0.5 1020177
14:00+11юв227078 0.6 1019793
17:00+11св337197 0.1 1018521
20:00+9с228459 0.1 101842
20 апреля, вт
вт2023:00+6с119252 0.0 101913
02:00+5с1194100 0.0 101824
05:00+4с11955 0.0 101815
08:00+6ссв01915 0.0 101986
11:00+11с116912 0.0 1018547
14:00+15ссв125056 0.0 10161546
17:00+15св224947 0.0 10151582
20:00+12ссв22655 0.0 101536
21 апреля, ср
ср2123:00+9св11735 0.0 101619
02:00+7ссв01795 0.0 101612
05:00+6ююв11845 0.0 101611
08:00+7ю12793 0.0 101789
11:00+13ююз11613 0.0 1017488
14:00+17с11440 0.0 10151254
17:00+18ссв22384 0.0 10141939
20:00+14ссв356610 0.1 1015139
22 апреля, чт
чт2223:00+9ссз368935 0.8 1017172
02:00+8с378752 0.9 1018245
05:00+8с4878100 0.0 1018389
08:00+7с596998 0.1 1020463
11:00+9ссв565835 0.0 1021771
14:00+12ссв454711 0.0 10211277
17:00+13св463632 0.0 10201578
20:00+10св34584 0.0 1021173
23 апреля, пт
пт2323:00+6ссв376259 0.0 1024272
02:00+4с36703 0.0 1024177
05:00+3ссв36765 0.0 1025171
08:00+4ссв47775 0.0 1025316
11:00+9ссв45575 0.0 1025950
14:00+12ссв55390 0.0 10241236
17:00+13ссв66380 0.0 10231086
20:00+10с48500 0.0 1024248